Hors Challenge

Le jogging du Père Noël à Rhisnes (5.00 km)

samedi 16 décembre 2017

Vous pouvez trouver Le classement original sur : http://www.jogging.org  
 
JOGGING ET SEMI DU PÈRE NOËL - RHISNES
DISTANCE 5.00 km
samedi 16 décembre 2017
 
Place dos NOM Catégorie Pl/cat temps temps/km Vitesse
01:00:00              
1 1492 SEBASTIEN MAHIA SENIOR H 1 00:17:20 03:28 17.30
2 1798 JULIEN DE COCQ ESPOIR H 1 00:17:39 03:32 16.99
3 1959 JEAN-ERIC ANDRE SENIOR H 2 00:19:14 03:51 15.59
4 1813 BORIS GERMIAT SENIOR H 3 00:19:15 03:51 15.58
5 1821 EMILE DUBUC VETERAN 1 1 00:19:42 03:57 15.22
6 1957 WILLIAM GILBERT ESPOIR H 2 00:19:46 03:57 15.17
7 1793 HUGO LAHAUT ESPOIR H 3 00:20:14 04:03 14.82
8 1966 BRIEUC CLERIN ESPOIR H 4 00:20:16 04:03 14.80
9 1879 ARNAUD CANARD ESPOIR H 5 00:20:27 04:06 14.66
10 1988 CLEMENT LEJENE ESPOIR H 6 00:20:38 04:08 14.53
11 1795 PEDRO FERREIRA VETERAN 1 2 00:20:48 04:10 14.42
12 1791 MAXENCE LEROY SENIOR H 4 00:21:14 04:15 14.12
13 1782 DAVID BAURAING SENIOR H 5 00:21:24 04:17 14.01
14 1808 MARTIN ERGO ESPOIR H 7 00:22:15 04:27 13.48
15 1968 ANTOINE PINON ESPOIR H 8 00:22:15 04:27 13.48
16 1992 ADRIEN BEINE ESPOIR H 9 00:22:21 04:28 13.42
17 1775 VINCENT BUCCILLI ESPOIR H 10 00:22:32 04:31 13.31
18 1786 CLARISSE GENETTE ESPOIR D 1 00:23:18 04:40 12.87
19 1779 FRANCOIS ARNOULD SENIOR H 6 00:23:37 04:44 12.70
20 1873 LAURELINE SOUTMANS SENIOR D 1 00:24:20 04:52 12.32
21 1760 MAXIMILIEN GUILLAUME ESPOIR H 11 00:24:38 04:56 12.17
22 1761 ALEXANDRE GUILLAUME SENIOR H 7 00:24:39 04:56 12.16
23 1762 LALIE JADOT ESPOIR D 2 00:24:43 04:57 12.13
24 1763 NICOLAS JADOT VETERAN 1 3 00:24:43 04:57 12.13
25 1963 DAVID PAQUET VETERAN 1 4 00:25:08 05:02 11.93
26 1776 EMILE LORENT ESPOIR H 12 00:25:13 05:03 11.89
27 1769 STANISLAW ORCHOWSKI ESPOIR H 13 00:25:22 05:05 11.82
28 1991 YANNICK POLET XXX   00:25:24 05:05 11.81
29 1759 GUIDO SCHMITZ SENIOR H 8 00:25:29 05:06 11.77
30 1815 BERTRAND GILLIARD VETERAN 1 5 00:25:52 05:11 11.59
31 1944 BRUNO ROBERT SENIOR H 9 00:25:55 05:11 11.57
32 1985 GEOFFREY GILLET VETERAN 1 6 00:25:58 05:12 11.55
33 1814 ODILE GILLIARD ESPOIR D 3 00:26:00 05:12 11.53
34 1820 LOUIS BAIWIR ESPOIR H 14 00:26:03 05:13 11.51
35 1987 PITCM JONCKERS VÉTÉRAN 2 1 00:26:07 05:14 11.48
36 1784 AXEL SALVE ESPOIR H 15 00:26:09 05:14 11.47
37 1783 MANU SALVE VETERAN 1 7 00:26:09 05:14 11.47
38 1777 ARTHUR CHARLIER ESPOIR H 16 00:26:25 05:17 11.35
39 1967 ROMAIN GRANDHENRY ESPOIR H 17 00:26:29 05:18 11.32
40 1819 JEAN BIAMONT ESPOIR H 18 00:26:34 05:19 11.29
41 1962 OSCAR JULIEN ESPOIR H 19 00:26:36 05:19 11.27
42 1986 DAVID CREPIN SENIOR H 10 00:26:49 05:22 11.18
43 1757 PAUL MIGNON ESPOIR H 20 00:27:02 05:25 11.09
44 1781 VICTOR FOSSE ESPOIR H 21 00:27:33 05:31 10.88
45 1807 MAXENCE GUBERT ESPOIR H 22 00:27:57 05:36 10.73
46 1758 MAXIME MIGNON ESPOIR H 23 00:28:06 05:37 10.67
47 1984 ANDY GILLET ESPOIR H 24 00:28:07 05:38 10.67
48 1875 JONATHAN BRONO SENIOR H 11 00:28:08 05:38 10.66
49 1770 AGNIESZKA ORCHOWSKA SENIOR D 2 00:28:19 05:40 10.59
50 1754 DENIS WILLEMS VETERAN 1 8 00:28:20 05:40 10.58
51 1768 FREDERIC DUJEUX VETERAN 1 9 00:28:46 05:45 10.42
52 1767 LÉO DUJEUX ESPOIR H 25 00:28:46 05:45 10.42
53 1871 JEAN TASIAUX ESPOIR H 26 00:28:47 05:46 10.42
54 1964 PIERRE LAGNEAUX ESPOIR H 27 00:29:17 05:52 10.24
55 1772 ALAIN BECCO SENIOR H 12 00:29:26 05:53 10.19
56 1790 STEPHANIE PIROTTE SENIOR D 3 00:29:27 05:54 10.18
57 1956 VANESSA THYS SENIOR D 4 00:29:40 05:56 10.11
58 1809 CELINE CRONBEZ XXX   00:29:42 05:57 10.10
59 1788 JACK MC CORD ESPOIR H 28 00:29:44 05:57 10.09
60 1993 ERIC JOISSAINS VÉTÉRAN 2 2 00:29:50 05:58 10.05
61 1994 CEDRIC EVERAERT SENIOR H 13 00:29:50 05:58 10.05
62 1787 PERCY MC CORD VETERAN 1 10 00:29:54 05:59 10.03
63 1794 LUCIE HOFFER ESPOIR D 4 00:30:08 06:02 9.95
64 1778 MAGALI COURTOIS AINÉE 1 1 00:30:35 06:07 9.80
65 1780 ROBIN ANDRE ESPOIR H 29 00:30:38 06:08 9.79
66 1876 ANTOINE BLOND ESPOIR H 30 00:30:50 06:10 9.73
67 1880 SANDRINA COURTOIS AINÉE 1 2 00:31:04 06:13 9.65
68 1990 CATHERINE AUDRY SENIOR D 5 00:31:06 06:13 9.64
69 1755 JULIEN BOUCHAT SENIOR H 14 00:31:22 06:17 9.56
70 1818 CHRISTINE HEKAZY AINÉE 1 3 00:32:02 06:25 9.36
71 1817 INA BIAMONT ESPOIR D 5 00:32:02 06:25 9.36
72 1756 ALEXIA RIGO SENIOR D 6 00:32:05 06:25 9.35
73 1785 YASMIN MUTLU SENIOR D 7 00:32:07 06:26 9.34
74 1983 MARIE-LAURENCE MONSEUR AINÉE 2 1 00:32:17 06:28 9.29
75 1812 STEPHANIE LUTIN SENIOR D 8 00:32:35 06:31 9.20
76 1810 BENEDIKTE CRONBEZ XXX   00:34:20 06:52 8.73
77 1960 MARIE-NOELLE COBRUNE SENIOR D 9 00:34:25 06:53 8.71
78 1872 GAETAN CLAEYS SENIOR H 15 00:34:45 06:57 8.63
79 1877 NOA ANCION ESPOIR H 31 00:35:10 07:02 8.53
80 1773 JOËL HACHEZ VETERAN 1 11 00:35:10 07:02 8.53
81 1958 LUDOVIC MACHEZ SENIOR H 16 00:35:13 07:03 8.51
82 1965 AGNIESZKA SZAFRANSKA AINÉE 1 4 00:36:10 07:14 8.29
83 1961 SOPHIE DRUNE AINÉE 1 5 00:37:19 07:28 8.04
84 1989 CAROLE ROMEO AINÉE 1 6 00:37:19 07:28 8.04
85 1816 VALERIE HERALY SENIOR D 10 00:37:20 07:28 8.03
86 1936 DAMIEN ANDRE VETERAN 1 12 00:39:03 07:49 7.68
87 1878 CATHERINE VANELDER AINÉE 2 2 00:39:49 07:58 7.53
88 1823 MARIE-FRANCOISE BERNY AINÉE 3 1 00:39:49 07:58 7.53
89 1881 MARTIN CLAEYS SENIOR H 17 00:41:04 08:13 7.30
90 1969 ALICE DORMANS SENIOR D 11 00:41:05 08:13 7.30
91 1972 AUGUSTIN HEBRANT ESPOIR H 32 00:42:22 08:29 7.08
92 1884 ELISABETH DUJARDIN SENIOR D 12 00:43:05 08:37 6.96
93 1914 KEVIN CAPPE SENIOR H 18 00:44:39 08:56 6.72
94 1913 JULIE SPOIDEN SENIOR D 13 00:44:39 08:56 6.72
95 1903 SYLVAIN GROSJEAN SENIOR H 19 00:44:49 08:58 6.69
96 1922 ARNAUD JONVILLE SENIOR H 20 00:44:50 08:58 6.69
97 1923 GAEL DEWAME SENIOR H 21 00:44:55 08:59 6.68
98 1916 MARC ANCIA VÉTÉRAN 2 3 00:44:58 09:00 6.67
99 1912 LAETITIA JACQUET SENIOR D 14 00:44:58 09:00 6.67
100 1973 CLAIRE GOLENVAUX XXX   00:45:03 09:01 6.66
101 1975 AURELIEN MOURMAUX SENIOR H 22 00:45:04 09:01 6.65
102 1974 MICHAEL BERTEAU XXX   00:45:04 09:01 6.65
103 1982 LEIA BOTTES ESPOIR D 6 00:45:04 09:01 6.65
104 1882 LUIG SANFILIPPO VETERAN 1 13 00:46:21 09:16 6.47
105 1883 SACHA SANFILIPPO ESPOIR H 33 00:46:21 09:16 6.47
106 1928 LIONEL LEJEUNE SENIOR H 23 00:48:49 09:46 6.14
107 1925 MAXIME SEVERIN SENIOR H 24 00:48:50 09:46 6.14
108 1918 MATTHIEU DECOSTER SENIOR H 25 00:48:58 09:48 6.12
109 1932 MARIETTE HENDRIX SENIOR D 15 00:49:26 09:53 6.07
110 1935 BERNARD VANNOORENBERGHE VÉTÉRAN 2 4 00:49:37 09:56 6.04
111 1931 SOPHIE DAVISTER SENIOR D 16 00:49:50 09:58 6.02
112 1930 SOPHIE LEBEGGE SENIOR D 17 00:49:51 09:58 6.02
113 1800 CHARLOTTE DOCQUIER XXX   00:50:05 10:01 5.99
114 1934 BENOÎT KIMPLAIRE SENIOR H 26 00:50:19 10:04 5.96
115 1924 LAUREN CREVECOEUR SENIOR D 18 00:50:20 10:04 5.96
116 1910 CHANTAL PIERRET AINÉE 2 3 00:51:09 10:14 5.86
117 1926 CÉLINE SEVERIN SENIOR D 19 00:51:25 10:17 5.83
118 1933 CLAIRE LAMBERT SENIOR D 20 00:51:25 10:17 5.83
119 1927 LAURA DOUXFILS SENIOR D 21 00:52:18 10:28 5.73
120 1917 DELPHINE GODERNIAUX SENIOR D 22 00:53:31 10:42 5.60
121 1943 CINDY GAASCHT SENIOR D 23 00:53:32 10:43 5.60
122 1920 PAULINE PARMENTIER SENIOR D 24 00:53:33 10:43 5.60
123 1902 ISABELLE EDART AINÉE 2 4 00:55:48 11:10 5.37
124 1929 MYRIAM BABIC AINÉE 2 5 00:55:48 11:10 5.37
125 1939 SÉBASTIEN GODARD SENIOR H 27 00:56:12 11:15 5.34
126 1938 SABINE RENARD SENIOR D 25 00:56:12 11:15 5.34
127 1901 ANTOINE MOREAU SENIOR H 28 00:56:32 11:19 5.30
128 1946 SÉVERINE FIRLA SENIOR D 26 00:56:58 11:24 5.26
129 1904 LAYLA SAAD AINÉE 1 7 00:56:58 11:24 5.26
130 1937 LISIANE DELANAYE SENIOR D 27 00:57:00 11:24 5.26
131 1915 ANNE GLIBERT AINÉE 1 8 00:58:19 11:40 5.14
132 1221 PHILIPPE WATHELET VETERAN 1 14 01:29:57 18:00 3.33